Showing default

LEMUR 2 JOHNNYTRUONG, 59146

Orbit data source: Space-Track

LEMUR 2 JOHNNYTRUONG, 59146 is an American payload satellite in SSO that was launched on Mon, 04 Mar 2024 UTC via an FALCON 9 launch vehicle from the Air Force Western Test Range (AFWTR). Payload-class satellites include a variety of spacecraft equipped with specific instruments for various scientific and technological missions. These include communications satellites like Starlink; space stations such as the ISS; scientific satellites like the Hubble; Earth observation satellites from companies like Planet Labs, Umbra, and HawkEye 360; GPS; miniature CubeSats for education and research; and military/defense satellites.

Loading next visibility...
Identifier
59146, 2024-043BA
Orbit
SSO
Country
Flag of USUS
Related business
Manufacturer
Spire/Glasgow
Mission
Operational Commercial Communications
Bus & Motor
CUBESAT 16U, Unknown motor
Mass
22 kg wet, 22 kg dry
Launch date (UTC)
2024-03-04 (2 years ago)
Launch vehicle
FALCON 9
Launch site
Air Force Western Test Range (AFWTR)
Object type
Payload
Rocket body
Debris
Shape & HBR
Box + 4 Pan, 1.4 m
Radar Cross Section
0.326 m², Medium (>0.1 m² and < 1m²)

Expand to show TLE details & history
Last TLE update: 1 day ago

TLE from 1 day ago
0 LEMUR 2 JOHNNYTRUONG
1 59146U 24043BA  26033.37802359  .00033907  00000-0  59643-3 0  9991
2 59146  97.5225 177.9011 0005051 315.7569  44.3278 15.50395191107083
Epoch: 2026-02-02T09:04Z
TLE epoch observation values (Epoch: 2026-02-02T09:04:21.238Z)
Latitude
0.00001°
Longitude
-90.76157°
Altitude
416.245 km
Speed
7.663 km/s
True Right ascension
11h 51m 36s
True Declination
0° 00' 00"
Sunlit
Object was in full shadow at epoch
Visualization orbit readout
Latitude
Unknown
Longitude
Unknown
Altitude
Unknown
Speed
Unknown
Apparent Right ascension
Unknown
Apparent Declination
Unknown
Sunlit
N/A
Visualization observer readout
Local Sidereal Time
13:51:48
Azimuth
Unknown
Elevation
Unknown
Doppler factor
Unknown
Orbital elements
Apogee altitude
415.932 km
Perigee altitude
409.072 km
Semi-major axis
6,790.639 km
Eccentricity
0.00051
Inclination
97.5225°
RAAN
177.9011°
Arg. of periapsis
315.7569°
True anomaly
44.36826°
Mean anomaly
44.3278°
Eccentric anomaly
44.34803°
Mean motion
3.87862 °/min
Orbital period
92.82 mins
BSTAR
0.00059643
Loading maneuver chart data...
Computing Atmospheric mass density...
Loading historical data...
Loading historical data...
Loading historical data...
Loading historical data...
Loading historical data...
Loading historical data...
Loading historical data...

Documentation

Showing up to 5 results
|